Weather History for KBRL - August, 2014

Change the Weather History Date:

Monday, August 11, 2014

  Actual Average Record
Temperature  
Mean Temperature 72 °F 76 °F  
Max Temperature 80 °F 86 °F 99 °F (1941)
Min Temperature 63 °F 66 °F 48 °F (2004)
Degree Days  
Heating Degree Days 0 0  
Month to date heating degree days 0 0  
Since 1 June heating degree days 9 14  
Since 1 July heating degree days 7 1  
Cooling Degree Days 7 11  
Month to date cooling degree days 76 121  
Year to date cooling degree days 651 850  
Since 1 June cooling degree days 513 747  
Growing Degree Days 22 (Base 50)    
Moisture  
Dew Point 65 °F    
Average Humidity 77    
Maximum Humidity 93    
Minimum Humidity 60    
Precipitation  
Precipitation T in 0.14 in 2.34 in (1952)
Month to date precipitation 1.22 1.43  
Year to date precipitation 24.08 24.41  
Sea Level Pressure  
Sea Level Pressure 29.93 in    
Wind  
Wind Speed 8 mph (NW)    
Max Wind Speed 20 mph    
Max Gust Speed 28 mph    
Visibility 9 miles    
Events Rain    
T = Trace of Precipitation, MM = Missing Value Source: NWS Daily Summary

Daily Weather History Graph

Daily Weather History Graph

Search for Another Location

Airport or City:

Trip Planner

Search our weather history database for the weather conditions in past years. The results will help you decide how hot, cold, wet, or windy it might be!

Date:

Astronomy

Aug. 11, 2014 Rise Set
Actual Time 6:10 AM CDT 8:07 PM CDT
Civil Twilight 5:40 AM CDT 8:37 PM CDT
Nautical Twilight 5:04 AM CDT 9:13 PM CDT
Astronomical Twilight 4:25 AM CDT 9:52 PM CDT
Moon 8:35 PM CDT (8/11) 7:16 AM CDT (8/11)
Length of Visible Light 14h 56m
Length of Day
13h 57m
Full, 99% of the Moon is Illuminated
Aug 11
Full
Aug 17
Last Quarter
Aug 25
New
Sep 2
First Quarter
Sep 8
Full

Hourly Weather History & Observations

Time (CDT) Temp. Dew Point Humidity Pressure Visibility Wind Dir Wind Speed Gust Speed Precip Events Conditions
12:53 AM 70.0 °F 66.9 °F 90% 29.97 in 5.0 mi Calm Calm - 0.03 in Rain Light Rain
1:53 AM 68.0 °F 68.0 °F 100% 29.95 in 6.0 mi WNW 3.5 mph - 0.00 in   Mostly Cloudy
2:53 AM 69.1 °F 66.0 °F 90% 29.93 in 9.0 mi WNW 3.5 mph - N/A   Partly Cloudy
3:53 AM 68.0 °F 66.0 °F 93% 29.93 in 9.0 mi NNW 3.5 mph - N/A   Mostly Cloudy
4:53 AM 66.9 °F 64.9 °F 93% 29.94 in 9.0 mi NW 6.9 mph - N/A   Clear
5:53 AM 66.9 °F 63.0 °F 87% 29.94 in 9.0 mi NNW 5.8 mph - N/A   Scattered Clouds
6:53 AM 66.9 °F 63.0 °F 87% 29.94 in 8.0 mi NNW 6.9 mph - N/A   Mostly Cloudy
7:53 AM 70.0 °F 64.0 °F 81% 29.94 in 9.0 mi NNW 6.9 mph - N/A   Clear
8:53 AM 73.0 °F 66.0 °F 79% 29.94 in 9.0 mi NNW 5.8 mph - N/A   Clear
9:53 AM 75.9 °F 66.9 °F 74% 29.94 in 9.0 mi NW 8.1 mph - N/A   Clear
10:53 AM 75.9 °F 68.0 °F 76% 29.94 in 9.0 mi WNW 6.9 mph - N/A   Overcast
11:53 AM 78.1 °F 68.0 °F 71% 29.93 in 9.0 mi WNW 6.9 mph - N/A   Partly Cloudy
12:53 PM 78.1 °F 68.0 °F 71% 29.92 in 10.0 mi WNW 6.9 mph - N/A   Mostly Cloudy
1:41 PM 75.9 °F 69.1 °F 79% 29.93 in 10.0 mi NW 17.3 mph 24.2 mph 0.00 in   Mostly Cloudy
1:53 PM 75.9 °F 69.1 °F 79% 29.92 in 10.0 mi NW 15.0 mph 23.0 mph 0.00 in   Mostly Cloudy
2:37 PM 77.0 °F 68.0 °F 74% 29.93 in 10.0 mi NW 15.0 mph 23.0 mph N/A   Partly Cloudy
2:53 PM 78.1 °F 66.9 °F 68% 29.91 in 10.0 mi NW 15.0 mph 24.2 mph N/A   Partly Cloudy
3:53 PM 78.1 °F 66.0 °F 66% 29.91 in 10.0 mi NNW 12.7 mph - N/A   Mostly Cloudy
4:53 PM 79.0 °F 64.9 °F 62% 29.90 in 10.0 mi NW 12.7 mph 21.9 mph N/A   Partly Cloudy
5:53 PM 77.0 °F 63.0 °F 62% 29.90 in 10.0 mi NW 13.8 mph 26.5 mph N/A   Scattered Clouds
6:53 PM 75.0 °F 62.1 °F 64% 29.90 in 10.0 mi NW 9.2 mph - N/A   Clear
7:53 PM 72.0 °F 63.0 °F 73% 29.91 in 10.0 mi NNW 8.1 mph - N/A   Partly Cloudy
8:53 PM 70.0 °F 63.0 °F 78% 29.91 in 10.0 mi NNW 6.9 mph - N/A   Clear
9:53 PM 68.0 °F 63.0 °F 84% 29.93 in 10.0 mi NNW 9.2 mph - N/A   Clear
10:53 PM 66.0 °F 62.1 °F 87% 29.94 in 10.0 mi NW 5.8 mph - N/A   Clear
11:53 PM 64.0 °F 62.1 °F 93% 29.95 in 10.0 mi WNW 5.8 mph - N/A   Clear